Regional Weather Roundup
Issued by NWS

Home | Current Version | Previous Version | Graphics & Text | Print | Product List | Glossary On
Versions: 1 2 3 4 5 6 7 8 9 10 11 12 13 14 15 16 17 18 19 20 21 22 23 24 25 26 27 28 29 30 31 32 33 34 35 36 37 38 39 40 41 42 43 44 45 46 47 48 49 50
000
ASUS43 KMKX 020610
RWRWI

WISCONSIN REGIONAL WEATHER ROUNDUP
NATIONAL WEATHER SERVICE MILWAUKEE/SULLIVAN WI
1200 AM CST MON MAR 02 2015

NOTE: "FAIR" INDICATES FEW OR NO CLOUDS BELOW 12,000 FEET WITH NO
SIGNIFICANT WEATHER AND/OR OBSTRUCTIONS TO VISIBILITY.

WIZ001-002-006>008-014>016-023>028-020700-
NORTHWEST WISCONSIN

CITY           SKY/WX    TMP DP  RH WIND       PRES   REMARKS
SUPERIOR ARPT  CLEAR     15   6  67 NW12      30.36R WCI   2
6HR MIN TEMP:  15; 6HR MAX TEMP:  24;

ASHLAND        CLOUDY    19   5  54 NW12G24   30.30R WCI   7
6HR MIN TEMP:  18; 6HR MAX TEMP:  22;

HAYWARD        CLEAR     16   6  65 VRB6      30.29R WCI   7
6HR MIN TEMP:  16; 6HR MAX TEMP:  21;

SIREN          CLEAR     15   8  72 NW10      30.35R WCI   2
6HR MIN TEMP:  15; 6HR MAX TEMP:  23;

CUMBERLAND     CLEAR     16   9  73 NW12G20   30.31R WCI   3
RICE LAKE      CLEAR     18   9  68 W13       30.33R WCI   5
6HR MIN TEMP:  17; 6HR MAX TEMP:  22;

CHETEK         CLEAR     17   9  70 W6        30.32R WCI   9
6HR MIN TEMP:  17; 6HR MAX TEMP:  22;

LADYSMITH      CLEAR     17   9  68 W12       30.29R WCI   5
6HR MIN TEMP:  14; 6HR MAX TEMP:  21;

EAU CLAIRE     CLEAR     17   8  67 NW7       30.33R WCI   8
6HR MIN TEMP:  13; 6HR MAX TEMP:  22;

MENOMONIE      MOCLDY    21  11  65 W14G20    30.35R WCI   8
6HR MIN TEMP:  19; 6HR MAX TEMP:  24;

NEW RICHMOND   MOCLDY    18  10  70 NW10G17   30.36R WCI   7
6HR MIN TEMP:  18; 6HR MAX TEMP:  24;

OSCEOLA        PTCLDY    19  10  68 NW10G17   30.41R WCI   7
6HR MIN TEMP:  19; 6HR MAX TEMP:  25;

$$

WIZ003>005-009-010-017-018-020700-
NORTH CENTRAL WISCONSIN

CITY           SKY/WX    TMP DP  RH WIND       PRES   REMARKS
MANITOWISH WTR LGT SNOW  17  12  82 NW14G23   30.18R WCI   2
6HR MIN TEMP:  17; 6HR MAX TEMP:  19;

ARBOR VITAE    CLOUDY    19  10  66 NW13G21   30.17R WCI   6
6HR MIN TEMP:  17; 6HR MAX TEMP:  22;

WOODRUFF       CLOUDY    19  10  66 NW13G21   30.17R WCI   6
6HR MIN TEMP:  17; 6HR MAX TEMP:  22;

RHINELANDER    PTCLDY    11   3  70 W10       30.17R WCI  -3
6HR MIN TEMP:  11; 6HR MAX TEMP:  17;

EAGLE RIVER    CLOUDY    17   7  65 W10       30.14R WCI   4
6HR MIN TEMP:  14; 6HR MAX TEMP:  18;

LAND O LAKES   LGT SNOW  18  13  82 NW8       30.15R WCI   7
6HR MIN TEMP:  15; 6HR MAX TEMP:  19;

PHILLIPS       CLOUDY    16   8  72 NW7       30.22R WCI   6
6HR MIN TEMP:  14; 6HR MAX TEMP:  19;

TOMAHAWK       CLEAR     14   6  70 W5        30.21R WCI   6
6HR MIN TEMP:  14; 6HR MAX TEMP:  19;

MEDFORD        CLEAR     13   6  74 W7        30.23R WCI   3
6HR MIN TEMP:  13; 6HR MAX TEMP:  19;

MERRILL        CLEAR     13   5  72 W7        30.22R WCI   2
6HR MIN TEMP:  12; 6HR MAX TEMP:  19;

$$

WIZ029-030-035-036-043>047-020700-
CENTRAL WISCONSIN

CITY           SKY/WX    TMP DP  RH WIND       PRES   REMARKS
WAUSAU         CLEAR     14   5  67 NW8       30.22R WCI   3
6HR MIN TEMP:  14; 6HR MAX TEMP:  20;

MOSINEE        CLEAR     14   9  79 W8        30.25R WCI   3
MARSHFIELD     CLEAR     14   6  70 W8        30.26R WCI   3
6HR MIN TEMP:  14; 6HR MAX TEMP:  20;

STEVENS POINT  CLEAR     13   6  72 W6        30.26R WCI   4
6HR MIN TEMP:  13; 6HR MAX TEMP:  19;

WAUPACA        CLEAR     19   8  63 W7        30.27R WCI   9
6HR MIN TEMP:  19; 6HR MAX TEMP:  22;

WAUTOMA        CLEAR     15   7  71 W6        30.29R WCI   6
6HR MIN TEMP:  15; 6HR MAX TEMP:  21;

WISC RAPIDS    CLEAR     14   5  67 W6        30.29R WCI   5
6HR MIN TEMP:  14; 6HR MAX TEMP:  23;

CAMP DOUGLAS   CLEAR     15  11  83 W9        30.31R WCI   4
6HR MIN TEMP:  15; 6HR MAX TEMP:  21;

$$

WIZ011>013-019>022-031-037>040-048>050-020700-
NORTHEAST WISCONSIN

CITY           SKY/WX    TMP DP  RH WIND       PRES   REMARKS
ANTIGO         CLEAR     14   6  69 W14G20    30.18R WCI  -1
6HR MIN TEMP:  13; 6HR MAX TEMP:  15;

SHAWANO        CLEAR     18   7  60 W5        30.24R WCI  11
6HR MIN TEMP:  18; 6HR MAX TEMP:  22;

OCONTO         CLEAR     15   6  66 W9        30.23R WCI   3
6HR MIN TEMP:  15; 6HR MAX TEMP:  21;

STURGEON BAY   CLEAR     18   5  57 W13       30.22R WCI   4
6HR MIN TEMP:  18; 6HR MAX TEMP:  23;

GREEN BAY      CLEAR     17   7  64 SW7       30.25R WCI   8
6HR MIN TEMP:  17; 6HR MAX TEMP:  23;

MANITOWOC      CLEAR     19   9  65 W14       30.26R WCI   6
6HR MIN TEMP:  19; 6HR MAX TEMP:  27;

APPLETON       CLEAR     16   5  62 W7        30.26R WCI   6
CLINTONVILLE   CLEAR     18   7  62 W6        30.25R WCI   9
OSHKOSH        CLEAR     17   6  62 SW5       30.28R WCI  10
6HR MIN TEMP:  17; 6HR MAX TEMP:  24;

$$

WIZ032>034-041-042-053>061-020700-
SOUTHWEST WISCONSIN

CITY           SKY/WX    TMP DP  RH WIND       PRES   REMARKS
LA CROSSE      CLEAR     10   4  76 CALM      30.37R
6HR MIN TEMP:  10; 6HR MAX TEMP:  23;

SPARTA         CLEAR      5   2  86 CALM      30.34R
6HR MIN TEMP:   4; 6HR MAX TEMP:  21;

VIROQUA        CLEAR     15  10  80 W6        30.32R WCI   6
6HR MIN TEMP:  14; 6HR MAX TEMP:  19;

BOSCOBEL       FAIR      11   5  77 SW8       30.39R WCI  -1
6HR MIN TEMP:  11; 6HR MAX TEMP:  23;

PRAIRIE DU CHI FAIR      17   8  67 W8        30.39R WCI   6
6HR MIN TEMP:  13; 6HR MAX TEMP:  22;

PLATTEVILLE    CLEAR     12   8  83 SW7       30.36R WCI   2
6HR MIN TEMP:  10; 6HR MAX TEMP:  21;

$$

WIZ056-057-062-063-064-067-068-020700-
SOUTH CENTRAL WISCONSIN

CITY           SKY/WX    TMP DP  RH WIND       PRES   REMARKS
REEDSBURG      CLEAR     16   8  72 W7        30.32R WCI   6
6HR MIN TEMP:  14; 6HR MAX TEMP:  22;

BARABOO/DELLS  CLEAR     16   8  70 W8        30.31R WCI   5
6HR MIN TEMP:  15; 6HR MAX TEMP:  22;

LONE ROCK      CLEAR     16   7  67 W8        30.36R WCI   5
6HR MIN TEMP:  15; 6HR MAX TEMP:  23;

MINERAL POINT  CLEAR     14   9  79 W8        30.34R WCI   3
MADISON        CLEAR     15   5  64 SW5       30.33R WCI   8
6HR MIN TEMP:  15; 6HR MAX TEMP:  25;

MIDDLETON      CLEAR     17   7  64 W8        30.33R WCI   7
6HR MIN TEMP:  17; 6HR MAX TEMP:  26;

WATERTOWN      CLEAR     15   7  68 SW3       30.32R
6HR MIN TEMP:  15; 6HR MAX TEMP:  25;

MONROE         CLEAR     18  10  73 W15       30.33R WCI   3
JANESVILLE     CLEAR     18   9  68 CALM      30.35R
$$

WIZ051-052-058>065-066-070>072-020700-
SOUTHEAST WISCONSIN

CITY           SKY/WX    TMP DP  RH WIND       PRES   REMARKS
MILWAUKEE      CLEAR     21   6  52 W12       30.32R WCI   9
6HR MIN TEMP:  21; 6HR MAX TEMP:  25;

WAUKESHA       CLEAR     18   7  62 W10       30.32R WCI   6
MILWAUKEE/TIMM CLEAR     19   7  58 W13       30.31R WCI   7
RACINE         CLEAR     19   7  59 W10       30.33R WCI   7
6HR MIN TEMP:  19; 6HR MAX TEMP:  23;

BURLINGTON     CLEAR     15   5  66 W7        30.34R WCI   5
6HR MIN TEMP:  15; 6HR MAX TEMP:  20;

KENOSHA        CLEAR     16   6  65 W12       30.32R WCI   3
6HR MIN TEMP:  16; 6HR MAX TEMP:  22;

FOND DU LAC    CLEAR     17   6  62 SW8       30.29R WCI   7
6HR MIN TEMP:  17; 6HR MAX TEMP:  26;

SHEBOYGAN      CLEAR     19   7  59 W10       30.27R WCI   7
6HR MIN TEMP:  19; 6HR MAX TEMP:  26;

WEST BEND      CLEAR     19   7  58 W13       30.28R WCI   7
JUNEAU         CLEAR     13   5  71 SW7       30.31R WCI   3
6HR MIN TEMP:  11; 6HR MAX TEMP:  24;

$$

LSZ147-162-020700-
LAKE SUPERIOR

STATION/POSITION TIME  TEMP    WIND        PRES    WAVE
                       AIR SEA DIR/SP/G            HT/PER
                 (UTC) (F)     (DEG/KT/KT) (MB)    (FT/S)
DEVILS ISLAND    0600   20     310/ 25/ 29 1026.5R
PORT WING        0523   20     300/ 17/ 25 1026.1R
SAXON HARBOR     0520   21     290/ 10/ 23 1024.4R
$$

LMZ867-665-643>646-020700-
LAKE MICHIGAN

STATION/POSITION TIME  TEMP    WIND        PRES    WAVE



USA.gov is the U.S. government's official web portal to all federal, state and local government web resources and services.